2021-09-27 00:03:09 r, 20.21m,0000000001Hz,0000658790c,0000001.430s, 022.8C,00002191
2021-09-27 00:13:12 r, 20.15m,0000000001Hz,0000621333c,0000001.348s, 022.8C,00002191
2021-09-27 00:23:10 r, 20.11m,0000000000Hz,0000598186c,0000001.298s, 022.5C,00002191
2021-09-27 00:33:09 r, 20.07m,0000000000Hz,0000583973c,0000001.267s, 022.5C,00002191
2021-09-27 00:43:09 r, 20.03m,0000000001Hz,0000561796c,0000001.219s, 022.5C,00002191
2021-09-27 00:53:10 r, 19.98m,0000000001Hz,0000538686c,0000001.169s, 022.2C,00002191
2021-09-27 01:03:09 r, 19.94m,0000000001Hz,0000517430c,0000001.123s, 022.2C,00002191
2021-09-27 01:13:09 r, 19.90m,0000000001Hz,0000495625c,0000001.076s, 022.2C,00002191
2021-09-27 01:23:11 r, 19.84m,0000000001Hz,0000472542c,0000001.025s, 021.9C,00002191
2021-09-27 01:33:09 r, 19.80m,0000000001Hz,0000451374c,0000000.980s, 021.9C,00002191
2021-09-27 01:43:09 r, 19.74m,0000000001Hz,0000430363c,0000000.934s, 021.5C,00002191
2021-09-27 01:53:12 r, 19.68m,0000000001Hz,0000405222c,0000000.879s, 021.5C,00002191
2021-09-27 02:03:09 r, 19.60m,0000000002Hz,0000378237c,0000000.821s, 021.5C,00002191
2021-09-27 02:13:09 r, 19.53m,0000000002Hz,0000355288c,0000000.771s, 021.2C,00002191
2021-09-27 02:23:12 r, 19.46m,0000000002Hz,0000332212c,0000000.721s, 021.2C,00002191
2021-09-27 02:33:09 r, 19.38m,0000000001Hz,0000308334c,0000000.669s, 021.2C,00002191
2021-09-27 02:43:09 r, 19.22m,0000000002Hz,0000268031c,0000000.582s, 021.2C,00002191
2021-09-27 02:53:11 r, 18.92m,0000000003Hz,0000203399c,0000000.441s, 020.9C,00002191
2021-09-27 03:03:09 r, 18.99m,0000000002Hz,0000216237c,0000000.469s, 020.9C,00002191
2021-09-27 03:13:09 r, 18.88m,0000000002Hz,0000195950c,0000000.425s, 020.9C,00002191
2021-09-27 03:23:10 r, 18.83m,0000000002Hz,0000187268c,0000000.406s, 020.9C,00002191
2021-09-27 03:33:09 r, 18.64m,0000000003Hz,0000157488c,0000000.342s, 020.6C,00002191
2021-09-27 03:43:09 r, 18.33m,0000000004Hz,0000117719c,0000000.255s, 020.6C,00002191
2021-09-27 03:53:12 r, 18.08m,0000000005Hz,0000094141c,0000000.204s, 020.6C,00002191
2021-09-27 04:03:09 r, 17.81m,0000000007Hz,0000073167c,0000000.159s, 020.3C,00002191
2021-09-27 04:13:09 r, 17.62m,0000000007Hz,0000061292c,0000000.133s, 020.3C,00002191
2021-09-27 04:23:12 r, 17.44m,0000000009Hz,0000051915c,0000000.113s, 020.3C,00002191
2021-09-27 04:33:09 r, 17.35m,0000000009Hz,0000047682c,0000000.103s, 020.3C,00002191
2021-09-27 04:43:09 r, 17.20m,0000000010Hz,0000041714c,0000000.091s, 020.3C,00002191
2021-09-27 04:53:10 r, 17.62m,0000000008Hz,0000061102c,0000000.133s, 020.3C,00002191
2021-09-27 05:03:09 r, 17.09m,0000000012Hz,0000037880c,0000000.082s, 020.3C,00002191
2021-09-27 05:13:09 r, 17.20m,0000000011Hz,0000041491c,0000000.090s, 019.9C,00002191
2021-09-27 05:23:10 r, 17.01m,0000000013Hz,0000034856c,0000000.076s, 019.9C,00002191
2021-09-27 05:33:09 r, 17.03m,0000000013Hz,0000035806c,0000000.078s, 019.9C,00002191
2021-09-27 05:43:09 r, 16.98m,0000000014Hz,0000034273c,0000000.074s, 019.9C,00002191
2021-09-27 05:53:11 r, 16.90m,0000000015Hz,0000031682c,0000000.069s, 019.6C,00002191
2021-09-27 06:03:09 r, 16.83m,0000000015Hz,0000029500c,0000000.064s, 019.6C,00002191
2021-09-27 06:13:09 r, 16.73m,0000000017Hz,0000026928c,0000000.058s, 019.6C,00002191
2021-09-27 06:23:12 r, 16.62m,0000000019Hz,0000024393c,0000000.053s, 019.3C,00002191
2021-09-27 06:33:09 r, 16.27m,0000000026Hz,0000017705c,0000000.038s, 019.3C,00002191
2021-09-27 06:43:09 r, 15.09m,0000000076Hz,0000005963c,0000000.013s, 019.3C,00002191
2021-09-27 06:53:12 r, 13.09m,0000000490Hz,0000000000c,0000000.000s, 019.3C,00002191
2021-09-27 07:03:09 r, 10.99m,0000003392Hz,0000000000c,0000000.000s, 019.0C,00002191
2021-09-27 07:13:09 r, 09.21m,0000017535Hz,0000000000c,0000000.000s, 018.6C,00002191
2021-09-27 07:23:10 r, 07.92m,0000057345Hz,0000000000c,0000000.000s, 018.6C,00002191
2021-09-27 07:33:11 r, 07.05m,0000128324Hz,0000000000c,0000000.000s, 018.6C,00002191
2021-09-27 07:43:09 r, 06.46m,0000220825Hz,0000000000c,0000000.000s, 018.6C,00002191
2021-09-27 07:53:11 r, 06.06m,0000318276Hz,0000000000c,0000000.000s, 019.0C,00002191
2021-09-27 08:03:10 r, 00.00m,0000415693Hz,0000000000c,0000000.000s, 019.6C,00002191
2021-09-27 08:13:09 r, 00.00m,0000506413Hz,0000000000c,0000000.000s, 020.3C,00002191
2021-09-27 08:23:10 r, 00.00m,0000590207Hz,0000000000c,0000000.000s, 021.2C,00002191
2021-09-27 08:33:12 r, 00.00m,0000597124Hz,0000000000c,0000000.000s, 022.5C,00002191
2021-09-27 08:43:09 r, 00.00m,0000596962Hz,0000000000c,0000000.000s, 023.5C,00002191
2021-09-27 08:53:12 r, 00.00m,0000596748Hz,0000000000c,0000000.000s, 024.8C,00002191
2021-09-27 09:03:10 r, 00.00m,0000596824Hz,0000000000c,0000000.000s, 025.1C,00002191
2021-09-27 09:13:09 r, 00.00m,0000596740Hz,0000000000c,0000000.000s, 025.7C,00002191
2021-09-27 09:23:10 r, 00.00m,0000596730Hz,0000000000c,0000000.000s, 026.1C,00002191
2021-09-27 09:33:11 r, 00.00m,0000596675Hz,0000000000c,0000000.000s, 026.1C,00002191
2021-09-27 09:43:09 r, 00.00m,0000596698Hz,0000000000c,0000000.000s, 026.1C,00002191
2021-09-27 09:53:11 r, 00.00m,0000596669Hz,0000000000c,0000000.000s, 026.1C,00002191
2021-09-27 10:03:10 r, 00.00m,0000596577Hz,0000000000c,0000000.000s, 027.0C,00002191
2021-09-27 10:13:09 r, 00.00m,0000596496Hz,0000000000c,0000000.000s, 027.7C,00002191
2021-09-27 10:23:10 r, 00.00m,0000596544Hz,0000000000c,0000000.000s, 028.3C,00002191
2021-09-27 10:33:12 r, 00.00m,0000596499Hz,0000000000c,0000000.000s, 028.6C,00002191
2021-09-27 10:43:09 r, 00.00m,0000596335Hz,0000000000c,0000000.000s, 029.3C,00002191
2021-09-27 10:53:12 r, 00.00m,0000596154Hz,0000000000c,0000000.000s, 031.2C,00002191
2021-09-27 11:03:10 r, 00.00m,0000596086Hz,0000000000c,0000000.000s, 032.5C,00002191
2021-09-27 11:13:09 r, 00.00m,0000595973Hz,0000000000c,0000000.000s, 033.1C,00002191
2021-09-27 11:23:12 r, 00.00m,0000595915Hz,0000000000c,0000000.000s, 033.1C,00002191
2021-09-27 11:33:10 r, 00.00m,0000596017Hz,0000000000c,0000000.000s, 032.8C,00002191
2021-09-27 11:43:09 r, 00.00m,0000595932Hz,0000000000c,0000000.000s, 033.1C,00002191
2021-09-27 11:53:10 r, 00.00m,0000596075Hz,0000000000c,0000000.000s, 033.1C,00002191
2021-09-27 12:03:11 r, 00.00m,0000595833Hz,0000000000c,0000000.000s, 033.5C,00002191
2021-09-27 12:13:09 r, 00.00m,0000595892Hz,0000000000c,0000000.000s, 033.8C,00002191
2021-09-27 12:23:11 r, 00.00m,0000595794Hz,0000000000c,0000000.000s, 034.1C,00002191
2021-09-27 12:33:10 r, 00.00m,0000595843Hz,0000000000c,0000000.000s, 034.4C,00002191
2021-09-27 12:43:09 r, 00.00m,0000595790Hz,0000000000c,0000000.000s, 034.4C,00002191
2021-09-27 12:53:12 r, 00.00m,0000595648Hz,0000000000c,0000000.000s, 035.1C,00002191
2021-09-27 13:03:10 r, 00.00m,0000595713Hz,0000000000c,0000000.000s, 035.1C,00002191
2021-09-27 13:13:09 r, 00.00m,0000595759Hz,0000000000c,0000000.000s, 035.1C,00002191
2021-09-27 13:23:13 r, 00.00m,0000595596Hz,0000000000c,0000000.000s, 035.7C,00002191
2021-09-27 13:33:10 r, 00.00m,0000595616Hz,0000000000c,0000000.000s, 036.4C,00002191
2021-09-27 13:43:09 r, 00.00m,0000595468Hz,0000000000c,0000000.000s, 037.0C,00002191
2021-09-27 13:53:10 r, 00.00m,0000595182Hz,0000000000c,0000000.000s, 039.3C,00002191
2021-09-27 14:03:11 r, 00.00m,0000594759Hz,0000000000c,0000000.000s, 041.9C,00002191
2021-09-27 14:13:09 r, 00.00m,0000594414Hz,0000000000c,0000000.000s, 044.4C,00002191
2021-09-27 14:23:11 r, 00.00m,0000594202Hz,0000000000c,0000000.000s, 045.4C,00002191
2021-09-27 14:33:10 r, 00.00m,0000594195Hz,0000000000c,0000000.000s, 045.7C,00002191
2021-09-27 14:43:09 r, 00.00m,0000594055Hz,0000000000c,0000000.000s, 046.0C,00002191
2021-09-27 14:53:10 r, 00.00m,0000594150Hz,0000000000c,0000000.000s, 046.0C,00002191
2021-09-27 15:03:12 r, 00.00m,0000594069Hz,0000000000c,0000000.000s, 046.4C,00002191
2021-09-27 15:13:09 r, 00.00m,0000594140Hz,0000000000c,0000000.000s, 046.0C,00002191
2021-09-27 15:23:12 r, 00.00m,0000594107Hz,0000000000c,0000000.000s, 045.7C,00002191
2021-09-27 15:33:10 r, 00.00m,0000594222Hz,0000000000c,0000000.000s, 045.4C,00002191
2021-09-27 15:43:10 r, 00.00m,0000594282Hz,0000000000c,0000000.000s, 045.1C,00002191
2021-09-27 15:53:10 r, 00.00m,0000594344Hz,0000000000c,0000000.000s, 044.4C,00002191
2021-09-27 16:03:11 r, 00.00m,0000594462Hz,0000000000c,0000000.000s, 043.8C,00002191
2021-09-27 16:13:09 r, 00.00m,0000594512Hz,0000000000c,0000000.000s, 043.1C,00002191
2021-09-27 16:23:11 r, 00.00m,0000594536Hz,0000000000c,0000000.000s, 042.8C,00002191
2021-09-27 16:33:11 r, 00.00m,0000594695Hz,0000000000c,0000000.000s, 042.2C,00002191
2021-09-27 16:43:10 r, 00.00m,0000594806Hz,0000000000c,0000000.000s, 040.9C,00002191
2021-09-27 16:53:11 r, 00.00m,0000594998Hz,0000000000c,0000000.000s, 039.6C,00002191
2021-09-27 17:03:10 r, 00.00m,0000595098Hz,0000000000c,0000000.000s, 039.0C,00002191
2021-09-27 17:13:10 r, 00.00m,0000595138Hz,0000000000c,0000000.000s, 039.0C,00002191
2021-09-27 17:23:09 r, 00.00m,0000595100Hz,0000000000c,0000000.000s, 039.3C,00002191
2021-09-27 17:33:10 r, 00.00m,0000595058Hz,0000000000c,0000000.000s, 039.9C,00002191
2021-09-27 17:43:10 r, 00.00m,0000595082Hz,0000000000c,0000000.000s, 039.6C,00002191
2021-09-27 17:53:10 r, 00.00m,0000595192Hz,0000000000c,0000000.000s, 039.6C,00002191
2021-09-27 18:03:10 r, 00.00m,0000595201Hz,0000000000c,0000000.000s, 039.3C,00002191
2021-09-27 18:13:10 r, 00.00m,0000595317Hz,0000000000c,0000000.000s, 038.3C,00002191
2021-09-27 18:23:10 r, 00.00m,0000564175Hz,0000000000c,0000000.000s, 038.0C,00002191
2021-09-27 18:33:12 r, 00.00m,0000434862Hz,0000000000c,0000000.000s, 037.0C,00002191
2021-09-27 18:43:10 r, 05.97m,0000344115Hz,0000000000c,0000000.000s, 036.0C,00002191
2021-09-27 18:53:10 r, 06.34m,0000246335Hz,0000000000c,0000000.000s, 035.1C,00002191
2021-09-27 19:03:12 r, 06.89m,0000148039Hz,0000000000c,0000000.000s, 033.8C,00002191
2021-09-27 19:13:10 r, 07.69m,0000070783Hz,0000000000c,0000000.000s, 033.1C,00002191
2021-09-27 19:23:10 r, 08.86m,0000024252Hz,0000000000c,0000000.000s, 032.5C,00002191
2021-09-27 19:33:10 r, 10.54m,0000005145Hz,0000000000c,0000000.000s, 031.9C,00002191
2021-09-27 19:43:10 r, 12.69m,0000000711Hz,0000000000c,0000000.000s, 030.9C,00002191
2021-09-27 19:53:10 r, 14.92m,0000000091Hz,0000005105c,0000000.011s, 030.6C,00002191
2021-09-27 20:03:10 r, 16.84m,0000000015Hz,0000029752c,0000000.065s, 030.2C,00002191
2021-09-27 20:13:10 r, 18.41m,0000000004Hz,0000125953c,0000000.273s, 029.9C,00002191
2021-09-27 20:23:10 r, 19.66m,0000000001Hz,0000401306c,0000000.871s, 029.6C,00002191
2021-09-27 20:33:11 r, 20.40m,0000000001Hz,0000790253c,0000001.715s, 029.3C,00002191
2021-09-27 20:43:10 r, 20.70m,0000000001Hz,0001028351c,0000002.232s, 029.0C,00002191
2021-09-27 20:53:10 r, 20.77m,0000000000Hz,0001104510c,0000002.397s, 029.0C,00002191
2021-09-27 21:03:12 r, 20.79m,0000000001Hz,0001123121c,0000002.437s, 028.6C,00002191
2021-09-27 21:13:10 r, 20.81m,0000000001Hz,0001144934c,0000002.485s, 028.3C,00002191
2021-09-27 21:23:10 r, 20.82m,0000000000Hz,0001160421c,0000002.518s, 028.3C,00002191
2021-09-27 21:33:12 r, 20.83m,0000000001Hz,0001166005c,0000002.530s, 028.0C,00002191
2021-09-27 21:43:10 r, 20.85m,0000000001Hz,0001186214c,0000002.574s, 028.0C,00002191
2021-09-27 21:53:10 r, 20.85m,0000000000Hz,0001189612c,0000002.582s, 028.0C,00002191
2021-09-27 22:03:10 r, 20.85m,0000000000Hz,0001193202c,0000002.589s, 028.0C,00002191
2021-09-27 22:13:10 r, 20.85m,0000000000Hz,0001188835c,0000002.580s, 027.7C,00002191
2021-09-27 22:23:10 r, 20.83m,0000000001Hz,0001167383c,0000002.533s, 027.7C,00002191
2021-09-27 22:33:11 r, 20.80m,0000000001Hz,0001132478c,0000002.458s, 027.7C,00002191
2021-09-27 22:43:10 r, 20.76m,0000000000Hz,0001096031c,0000002.379s, 027.7C,00002191
2021-09-27 22:53:10 r, 20.73m,0000000001Hz,0001057588c,0000002.295s, 027.3C,00002191
2021-09-27 23:03:12 r, 20.69m,0000000000Hz,0001021974c,0000002.218s, 027.3C,00002191
2021-09-27 23:13:10 r, 20.62m,0000000001Hz,0000961741c,0000002.087s, 027.3C,00002191
2021-09-27 23:23:10 r, 20.58m,0000000000Hz,0000924222c,0000002.006s, 027.3C,00002191
2021-09-27 23:33:13 r, 20.54m,0000000001Hz,0000888752c,0000001.929s, 027.7C,00002191
2021-09-27 23:43:10 r, 20.50m,0000000000Hz,0000864613c,0000001.876s, 028.0C,00002191
2021-09-27 23:53:10 r, 20.47m,0000000001Hz,0000843795c,0000001.831s, 028.3C,00002191
